Location: ??
(35.5653°N, 139.6194°E)
Time: 07:05:56
(UTC+00:00)

Cosmos 2333 Rocket - Pass Details

Date: 20 November 2019
Orbit: 837 x 864 km, 70.8° (Epoch: 06 December)

Event Time Altitude Azimuth Distance (km) Brightness Sun altitude
Rises 20:15:59 0° 347° (NNW) 3,451 5.1 -13.5°
Reaches altitude 10° 20:18:42 10° 357° (N) 2,511 4.5 -13.0°
Maximum altitude 20:23:53 33° 61° (ENE) 1,407 3.8 -12.0°
Drops below altitude 10° 20:29:02 10° 125° (SE) 2,493 6.0 -11.0°
Sets 20:31:43 0° 134° (SE) 3,423 6.6 -10.5°
